Terminal Aerodrome Forecast
Issued by NWS Cleveland, OH

Home | Current Version | Previous Version | Graphics & Text | Print | Product List | Glossary On
Versions: 1 2 3 4 5 6 7 8 9 10 11 12 13 14 15 16 17 18 19 20
000
FTUS41 KCLE 260530
TAFYNG
TAF
KYNG 260530Z 2606/2706 22010KT P6SM SCT050 BKN200
      TEMPO 2609/2611 3SM -TSRA BR OVC030CB
     FM261100 23011KT 6SM BR VCSH BKN030
     FM261500 30012KT 6SM BR VCSH OVC010
     FM262200 35012KT P6SM OVC018=

USA.gov is the U.S. government's official web portal to all federal, state and local government web resources and services.